Regional Weather Roundup
Issued by NWS State College, PA

Home | Current Version | Previous Version | Graphics & Text | Print | Product List | Glossary On
Versions: 1 2 3 4 5 6 7 8 9 10 11 12 13 14 15 16 17 18 19 20 21 22 23 24 25 26 27 28 29 30 31 32 33 34 35 36 37 38 39 40 41 42 43 44 45 46 47 48 49 50
000
ASUS41 KCTP 281603
RWRCTP

REGIONAL WEATHER ROUNDUP
NATIONAL WEATHER SERVICE STATE COLLEGE PA
1200 PM EDT SUN MAY 28 2017

Note: "fair" indicates few or no clouds below 12,000 feet with no
significant weather and/or obstructions to visibility.

* = STATION THAT DOES NOT REPORT PRECIPITATION /E.G. RAIN...SNOW...ETC/
    THUNDER OR FOG.

PAZ002>004-007>009-013>016-020>023-029>032-281700-
WESTERN PENNSYLVANIA

CITY           SKY/WX    TMP DP  RH WIND       PRES   REMARKS
ERIE           MOSUNNY   69  58  67 NE8       29.80R
MEADVILLE      MOSUNNY   73  59  61 SW6       29.81F
FRANKLIN*      MOSUNNY   72  57  60 S9        29.84S
NEW CASTLE     PTSUNNY   75  65  70 S8        29.82F
BEAVER COUNTY  NOT AVBL
BUTLER*        CLOUDY    72  64  78 S7        29.83S
PITTSBURGH INT CLOUDY    70  65  84 SW9       29.82S
PITTSBURGH     CLOUDY    72  63  73 SW9       29.82F
INDIANA*       CLOUDY    70  64  83 S9        29.88S
LATROBE        CLOUDY    70  66  88 SW9       29.86R
WASHINGTON CO* CLOUDY    70  64  83 S7        29.84F
$$

PAZ004>006-010>012-017>019-024>028-033>037-041-042-045-046-049>053-281700-
CENTRAL PENNSYLVANIA

CITY           SKY/WX    TMP DP  RH WIND       PRES   REMARKS
BRADFORD       CLOUDY    64  58  80 S8        29.88R
DUBOIS         CLOUDY    67  59  75 SE6       29.86R
CLEARFIELD     CLOUDY    66  61  84 VRB5      29.89R
JOHNSTOWN      CLOUDY    63  61  93 SE7       29.89S FOG
ALTOONA        CLOUDY    63  60  90 S9        29.91R
STATE COLLEGE  CLOUDY    64  59  82 S10       29.90R
WILLIAMSPORT   CLOUDY    73  59  61 CALM      29.87R
SELINSGROVE    CLOUDY    73  59  61 S8        29.90R
FT INDIANTOWN  PTSUNNY   71  62  71 S5        29.90S
CAPITAL CITY   CLOUDY    70  60  70 E6        29.90R
HARRISBURG     CLOUDY    71  62  73 SE5       29.90R
YORK           LGT RAIN  69  61  75 SE8       29.91R
$$

PAZ038>040-043-044-047-048-054-055-060>062-067>071-281700-
EASTERN PENNSYLVANIA

CITY           SKY/WX    TMP DP  RH WIND       PRES   REMARKS
SCRANTON       PTSUNNY   74  53  48 SW8       29.90R
MOUNT POCONO   PTSUNNY   66  54  65 S9        29.95R
ALLENTOWN      MOSUNNY   76  56  49 SE7       29.92R
QUAKERTOWN*    MOSUNNY   73  57  56 SE9       29.93R
READING        PTSUNNY   76  61  59 SE8       29.90R
LANCASTER      CLOUDY    72  62  71 SE7       29.91R
COATESVILLE    PTSUNNY   72  61  68 SE7       29.93R
POTTSTOWN      MOSUNNY   74  55  51 VRB7      29.93R
BLUE BELL      MOSUNNY   73  61  64 SE7       29.93R
DOYLESTOWN     MOSUNNY   73  59  61 S7        29.92R
WILLOW GROVE   NOT AVBL
NORTH PHILA    MOSUNNY   75  60  59 SE10      29.93R
PHILADELPHIA   PTSUNNY   76  61  59 SE9       29.92R
$$




USA.gov is the U.S. government's official web portal to all federal, state and local government web resources and services.